Temp
17 17 17 16 16 16 16 16 16 16 15 15 14 14 15 15 15 14 14 13 13 13 13 13 13 13 13 13 13 13 13 12 12 12 12 12 12 12 12 13 13 12 12 12 12 12 13 13 13 13 13 13 13 13 13 13 12 12 12 12 12 12 12 12 11 11 12 12 12 12 12 12 11 11 10 10 10 10 10 10 10 10 10 10 10
17 17 16 16 16 16 16 16 16 15 15 15 14 14 14 14 14 14 13 13 13 13 13 13 13 13 13 13 13 12 12 12 12 12 12 12 12 12 12 13 12 12 12 12 12 12 12 12 12 12 13 13 13 13 13 12 12 12 12 12 12 12 12 12 12 12 12 12 12 12 12 11 11 10 10 9 9 9 10 10 10 10 10 10 10
17 17 16 16 16 15 15 15 15 15 15 14 14 14 14 14 14 14 13 13 13 13 13 13 13 13 12 12 12 12 12 12 12 12 12 12 12 12 12 12 12 12 12 12 12 12 12 12 12 12 12 12 12 12 12 12 12 12 12 11 12 12 12 12 12 12 12 12 12 11 11 11 10 10 9 9 9 9 9 9 9 10 10 10 10
17 16 16 16 16 15 15 15 15 15 14 14 13 14 14 14 14 14 13 13 13 13 13 13 13 12 12 12 12 12 12 12 12 12 12 12 12 12 12 12 12 12 12 12 12 12 12 12 12 12 12 12 12 12 12 12 12 12 11 11 11 11 12 12 12 12 12 11 11 11 11 10 10 9 9 9 9 9 9 9 9 9 9 10 10
17 16 16 16 15 15 15 14 14 14 14 13 13 13 14 14 13 13 13 13 13 13 13 13 13 13 12 12 12 12 12 12 12 12 12 12 12 12 12 12 12 12 12 12 12 12 12 12 12 12 12 12 11 11 11 11 11 11 11 11 11 11 11 11 12 12 11 11 11 11 10 10 10 9 9 8 8 8 9 9 9 9 9 10 10
17 16 16 15 15 15 14 14 14 14 13 13 13 13 14 14 14 13 13 13 13 13 13 13 13 13 13 12 12 12 12 12 12 12 12 12 12 12 12 12 12 12 12 12 12 12 12 12 12 12 12 11 11 11 11 11 11 11 11 11 11 11 11 11 11 11 11 11 11 10 10 10 9 9 9 8 8 8 8 9 9 9 9 9 10
17 16 16 15 15 15 14 14 14 14 13 13 13 13 14 14 14 13 13 13 13 13 13 13 13 13 13 13 12 12 12 12 12 12 12 12 13 13 13 12 12 12 12 12 12 12 12 12 12 12 12 11 11 11 11 12 11 11 11 11 11 11 11 11 11 11 10 10 10 10 10 9 9 9 9 8 8 8 8 8 8 9 9 9 9
17 16 16 15 15 15 14 14 14 14 13 13 13 14 14 14 13 13 13 13 13 13 13 13 13 13 13 13 13 12 12 12 12 12 12 12 13 13 13 12 12 12 12 12 12 12 12 12 11 11 12 11 11 11 12 12 12 11 11 11 11 11 11 10 10 10 10 10 10 9 9 9 9 9 9 8 8 8 8 7 7 8 8 9 9
16 16 16 15 15 15 14 14 14 14 13 13 13 14 14 14 13 13 13 13 13 13 13 13 13 13 13 13 13 13 12 12 12 12 12 12 12 12 12 12 12 12 12 12 11 11 11 11 11 12 12 11 11 11 12 12 12 11 11 11 11 11 11 10 10 9 9 9 9 9 9 9 8 8 8 8 8 8 8 8 8 8 8 8 9
16 16 16 15 15 15 14 14 14 14 13 13 13 14 14 13 13 13 13 13 13 13 13 13 13 13 13 13 13 13 13 12 12 12 12 12 12 12 12 12 12 12 12 11 11 11 11 11 12 12 12 12 11 11 11 11 11 11 11 11 11 10 10 10 10 9 9 9 8 8 9 9 9 8 8 8 8 8 8 8 8 8 8 8 9
16 16 15 15 15 15 14 14 14 14 13 13 14 14 14 14 14 14 13 13 13 13 13 13 13 13 13 13 13 13 13 12 12 12 12 12 12 12 12 12 12 11 11 11 11 11 11 12 12 12 12 12 11 11 11 11 11 11 11 10 10 10 10 10 10 9 9 9 9 8 8 9 9 9 9 8 8 8 8 8 8 8 7 6 7
16 16 15 15 15 14 14 14 14 14 14 14 14 14 14 14 14 14 14 14 14 14 14 14 14 14 13 13 13 13 13 13 12 12 12 12 12 12 12 12 11 11 11 11 11 12 12 12 12 12 12 12 11 11 11 11 11 10 10 10 10 10 10 10 10 9 9 9 9 9 9 9 9 9 9 8 8 8 9 8 8 8 7 7 7
16 16 15 15 15 14 14 14 14 14 14 14 14 14 14 14 14 14 14 14 14 14 14 14 14 14 13 13 13 13 13 12 12 12 12 12 12 12 12 12 11 11 11 11 12 12 12 12 12 11 11 11 11 11 11 10 10 10 10 10 10 10 9 9 9 9 9 9 9 9 9 9 9 9 9 9 8 9 9 8 8 8 8 8 8
16 16 15 15 15 14 14 14 14 14 14 14 14 14 14 14 14 14 14 14 14 14 14 14 14 14 13 13 13 13 13 12 12 12 12 12 12 12 12 12 11 11 11 11 12 12 12 11 11 11 11 11 11 11 11 11 11 11 10 10 10 10 9 9 9 9 9 9 9 9 9 9 9 10 10 9 9 9 9 9 8 8 8 8 9
16 15 15 15 14 14 14 14 14 14 14 14 14 14 14 14 14 14 14 14 14 14 14 14 14 13 13 13 13 12 12 12 12 12 12 12 12 12 12 12 11 11 11 11 11 11 11 11 11 11 11 11 11 11 11 11 11 11 10 10 11 10 10 10 9 9 9 10 9 10 9 9 9 10 10 9 9 9 9 9 9 9 9 9 9
16 15 15 15 14 14 14 14 14 14 14 14 14 14 14 14 14 14 14 14 14 14 14 14 14 13 13 13 12 12 12 12 12 12 12 12 12 12 12 12 11 11 11 11 11 11 11 11 11 11 11 11 11 11 11 11 10 10 10 11 11 11 10 10 9 9 9 10 10 10 10 10 10 10 10 10 9 9 9 9 9 9 9 9 9
15 15 15 15 14 14 14 14 14 14 14 14 14 14 14 14 14 14 14 14 14 14 14 14 14 13 13 12 12 12 12 11 12 12 12 12 12 12 12 11 11 11 11 11 11 11 11 11 11 11 11 11 11 11 11 11 10 10 11 11 11 10 10 9 10 10 10 10 10 10 10 10 10 10 10 10 10 10 9 9 9 9 9 8 8
15 15 15 15 14 14 14 14 14 14 14 14 14 14 14 14 14 14 14 14 14 14 14 13 13 13 12 12 12 12 12 11 11 11 12 11 11 11 11 11 11 11 11 11 11 11 11 11 11 11 11 11 11 11 11 11 11 10 11 11 11 10 10 10 10 10 10 10 10 10 10 11 11 10 10 10 10 10 10 10 9 9 9 9 8
16 15 15 15 15 14 14 14 14 14 14 14 14 14 14 14 14 14 14 14 13 13 13 13 13 13 12 12 12 12 11 11 11 11 11 11 11 11 11 11 11 11 11 11 11 11 11 10 10 10 10 11 11 11 11 11 11 10 11 11 10 10 10 11 10 10 10 10 10 11 11 11 11 10 10 10 10 10 10 10 10 10 10 9 9
16 15 15 15 15 15 14 14 14 14 14 14 14 14 14 14 14 14 14 14 13 13 13 13 13 12 12 11 11 11 10 10 11 11 11 10 11 11 11 11 11 11 10 10 10 10 10 10 10 10 10 10 11 11 11 11 11 10 10 10 10 10 11 10 10 10 10 10 10 11 11 11 11 10 10 10 10 10 10 10 10 10 10 10 10
16 16 15 15 15 15 15 14 14 14 14 14 14 14 14 14 14 14 14 13 13 13 13 13 12 12 11 11 11 11 10 10 10 10 10 10 10 10 10 10 10 10 10 10 10 10 10 10 10 10 10 10 11 11 11 11 11 11 10 10 10 10 11 10 10 10 10 10 11 11 11 11 11 10 10 10 10 10 10 10 10 10 10 10 10
16 16 15 15 15 15 15 14 14 14 13 13 13 13 14 14 14 14 13 13 13 13 12 12 12 11 11 11 10 10 10 10 10 10 10 10 10 10 10 10 10 10 10 10 10 10 10 10 10 10 10 10 11 11 11 11 11 11 11 11 10 10 10 10 10 10 10 10 10 10 11 11 11 11 10 10 10 10 10 10 10 10 10 10 10
16 16 15 15 15 15 14 14 13 13 13 13 13 13 13 13 13 13 13 13 13 12 12 11 11 10 10 10 10 10 10 10 10 10 9 9 10 10 10 10 10 10 10 10 10 10 10 10 11 11 11 11 11 11 11 11 11 11 11 11 10 10 10 10 10 10 10 10 10 10 11 11 11 11 10 10 10 11 10 10 10 10 10 10 10
16 16 15 15 15 14 14 13 13 13 13 13 13 13 13 13 13 13 13 13 12 11 11 11 10 10 9 9 9 9 10 10 9 9 9 9 10 10 10 10 10 10 10 10 10 10 10 11 11 11 11 11 11 11 11 11 11 11 11 10 10 10 10 10 10 10 10 10 10 10 11 11 11 10 10 10 10 10 10 10 10 10 10 10 10
15 15 14 14 14 14 13 13 13 13 13 13 13 13 13 13 13 13 12 12 12 11 10 10 10 9 9 9 9 9 9 10 9 9 9 9 10 10 10 9 9 9 9 9 10 10 11 11 11 11 11 11 11 11 11 11 11 11 10 10 10 10 10 10 10 10 10 10 10 10 11 11 10 10 10 10 10 10 10 10 10 10 10 10 10
15 14 14 14 13 13 13 13 13 13 13 13 13 13 13 12 12 12 12 12 11 11 10 9 9 9 9 9 9 9 9 9 9 9 9 9 9 10 10 9 9 9 9 9 10 11 11 11 11 11 10 10 10 10 10 10 10 10 10 10 10 10 10 10 10 10 10 10 10 11 10 10 10 10 10 10 10 10 10 10 10 10 10 10 10
14 14 14 13 13 13 13 12 12 12 12 12 12 12 12 12 12 12 12 11 11 10 10 9 9 9 9 9 9 9 8 8 8 8 9 9 9 10 9 9 9 8 8 8 9 10 10 10 10 10 10 10 10 10 10 10 10 10 10 11 11 11 11 10 10 10 10 10 10 11 10 10 10 10 10 10 10 10 10 10 10 10 10 10 10
14 13 13 13 13 12 12 12 12 12 12 12 12 12 12 12 12 12 12 11 11 10 10 9 9 9 9 9 9 8 8 8 8 9 9 9 9 9 9 9 9 8 8 8 9 9 9 9 9 9 9 9 9 9 9 10 10 10 10 11 11 11 11 11 10 10 10 10 10 10 10 10 10 10 10 10 10 10 10 10 10 10 10 10 10
13 13 13 12 12 12 12 12 12 12 12 12 12 12 12 12 12 11 11 11 12 11 11 10 10 10 10 10 9 8 8 8 9 9 9 9 9 9 9 9 9 9 8 8 8 8 8 8 9 9 9 9 9 9 9 10 10 10 10 11 11 11 11 11 10 11 11 10 10 10 10 10 10 10 10 10 10 10 10 10 10 10 10 10 10
13 13 12 12 12 12 12 12 12 12 12 12 11 11 11 11 11 11 11 11 11 11 11 11 11 10 10 10 10 9 9 9 9 9 9 9 9 9 10 9 9 9 8 8 8 8 8 8 8 8 9 9 9 9 9 10 10 10 11 11 11 11 11 11 11 11 11 11 10 10 10 11 11 10 10 10 10 10 10 10 10 10 10 10 10
13 12 12 12 12 12 12 11 11 11 11 11 11 11 11 11 11 11 11 11 11 11 11 11 11 11 11 10 10 10 10 10 10 9 9 9 9 9 9 9 9 9 8 8 8 8 8 8 8 8 9 9 9 10 10 10 10 10 11 11 11 11 11 11 11 11 11 11 11 11 11 11 11 11 11 10 10 10 10 10 10 10 10 10 10
12 12 12 12 12 12 11 11 11 11 11 11 11 11 11 10 10 10 11 11 11 11 11 11 11 11 11 11 11 11 10 10 10 9 9 9 9 9 9 9 9 9 8 8 8 8 8 8 8 9 9 9 9 10 10 10 10 11 11 11 11 11 11 11 12 11 11 11 11 11 11 11 11 11 11 10 10 10 10 10 10 10 10 10 10
12 12 11 11 11 11 11 11 11 11 11 11 11 11 10 10 9 9 9 10 10 11 11 11 11 11 11 11 11 11 11 10 10 10 9 9 9 9 9 9 9 9 8 8 8 8 8 8 9 9 9 9 10 10 10 10 10 11 11 11 11 12 12 12 12 12 11 11 11 11 11 11 11 11 10 10 10 10 10 10 10 10 10 10 10
12 11 11 11 11 11 11 11 11 11 11 11 11 10 10 10 10 9 8 9 10 10 10 11 11 11 11 11 11 11 11 11 10 10 9 9 9 9 9 8 8 8 8 8 8 8 8 8 9 9 9 9 10 10 10 10 10 11 11 11 12 12 12 12 12 12 12 11 11 11 11 11 11 10 10 10 11 11 10 10 10 10 10 9 9
12 12 11 11 11 11 11 11 11 11 11 11 11 10 10 9 9 9 9 9 9 9 9 10 10 10 11 11 11 11 11 11 10 10 9 9 9 9 8 8 8 8 8 8 8 8 8 8 9 9 9 9 10 10 10 10 11 11 11 12 12 12 12 12 12 12 12 11 11 11 11 11 10 10 10 10 11 10 10 10 10 10 9 9 9
12 12 11 11 11 11 11 11 11 11 11 11 10 10 9 9 9 9 9 9 9 9 9 9 9 9 10 10 10 11 11 11 11 10 10 9 9 9 8 8 8 8 8 8 8 8 8 8 8 9 9 9 10 10 10 10 11 11 12 12 12 12 12 12 12 12 12 11 11 11 11 10 10 10 10 10 10 10 10 10 9 9 9 8 8
12 12 11 11 10 11 11 11 11 11 11 11 10 10 9 9 9 9 9 9 9 9 9 8 8 9 9 9 9 10 10 10 10 10 9 9 9 9 8 8 8 8 8 8 7 7 8 8 8 9 9 9 10 10 10 10 10 11 11 12 12 12 12 12 12 11 11 11 11 10 10 10 10 10 10 10 10 10 9 9 8 8 8 8 8
12 12 11 11 10 10 10 10 10 10 11 11 10 10 9 9 9 9 8 8 8 8 8 8 8 8 8 8 9 9 9 9 8 8 8 8 8 8 8 8 8 8 8 7 7 7 8 8 8 9 9 9 9 10 10 10 10 11 11 11 11 11 11 11 11 11 10 10 10 10 10 10 10 10 10 10 9 9 8 8 8 8 8 8 7
12 12 11 11 10 10 10 10 10 10 10 10 10 10 9 9 9 8 8 7 7 7 7 7 8 8 8 8 8 8 8 7 7 7 7 7 7 7 7 7 7 8 8 8 7 8 8 8 8 8 8 8 9 9 9 10 10 10 11 11 11 11 11 11 10 10 10 10 10 10 10 10 9 9 9 8 8 8 8 8 7 7 7 6 6
12 12 11 11 11 10 10 10 10 10 10 10 10 10 10 9 9 8 8 7 7 7 7 7 7 8 8 8 8 8 8 7 7 7 7 7 7 7 7 7 7 7 8 7 7 7 8 8 8 8 8 8 9 9 9 10 10 10 10 11 10 10 10 10 10 10 10 10 9 9 9 9 8 8 8 8 7 7 7 7 7 6 6 5 5
12 11 11 11 11 10 10 10 10 10 10 10 10 10 10 9 9 8 8 8 7 7 7 7 7 7 8 8 8 8 8 7 7 7 7 7 7 7 7 7 7 7 7 7 7 7 7 8 8 8 8 9 9 9 9 9 10 10 10 10 10 10 9 9 10 10 9 9 9 9 8 8 8 7 7 7 7 7 6 6 6 5 5 5 4
12 11 11 11 10 10 10 10 10 10 10 10 10 10 10 9 9 9 9 8 8 7 7 7 7 7 7 7 7 7 7 7 7 7 7 7 7 7 8 8 8 7 7 7 7 7 7 8 8 8 8 9 9 9 9 9 10 10 10 10 9 9 9 9 9 9 9 9 8 8 8 7 7 7 6 6 6 6 5 5 5 4 4 4 3
12 11 11 10 10 10 10 10 10 10 10 10 10 9 9 9 9 9 9 8 8 7 7 7 7 7 7 7 7 6 6 6 6 6 7 7 7 7 8 8 8 7 7 7 7 7 8 8 8 8 8 8 9 9 9 9 9 9 9 9 9 9 9 9 9 8 8 8 7 7 7 6 6 6 6 6 5 5 4 4 4 3 3 3 2
11 11 10 10 10 10 10 10 10 9 10 9 9 9 9 9 9 9 8 8 7 7 7 7 7 7 7 6 6 6 5 5 5 6 6 7 7 7 7 7 7 7 8 8 8 8 8 8 8 8 8 8 8 9 9 9 9 9 9 9 9 9 9 9 8 8 7 7 6 6 6 6 5 5 5 4 4 3 3 3 2 2 2 1 1
11 10 10 10 10 10 10 10 9 9 9 9 9 8 8 8 8 8 8 8 8 7 7 7 7 7 7 7 6 6 5 5 5 6 6 6 7 7 7 8 8 8 8 8 7 7 7 8 8 8 8 8 8 8 8 8 9 9 9 9 9 8 8 8 7 7 6 6 6 6 5 5 4 4 3 3 3 2 2 2 1 1 1 0 0
10 10 10 10 10 9 9 9 9 9 9 9 8 8 8 8 8 8 8 8 8 7 7 7 7 7 7 7 7 6 6 5 6 6 6 7 7 7 8 8 8 8 8 8 7 7 8 8 8 8 8 8 8 8 8 8 8 8 8 8 8 7 7 6 6 5 5 5 5 5 4 4 3 3 2 2 2 2 1 1 0 0 -0 -1 -1
10 10 10 9 9 9 9 9 9 9 8 8 8 8 8 8 8 8 8 8 7 7 7 7 7 7 7 7 7 7 6 6 6 7 7 7 7 8 8 8 8 8 8 7 7 7 7 8 8 8 8 8 8 8 8 8 8 8 8 7 7 6 6 5 5 5 5 4 4 4 3 3 2 2 1 1 1 1 0 -0 -0 -1 -1 -1 -2
10 9 9 9 9 8 8 8 8 8 8 8 8 8 8 8 8 8 8 8 7 7 7 7 7 8 8 8 7 7 7 6 7 7 7 7 8 8 8 8 8 7 7 7 7 7 7 7 7 8 8 8 8 8 8 7 7 7 6 6 6 5 5 4 4 4 4 3 3 2 2 2 2 1 1 1 0 -0 -1 -1 -1 -1 -2 -2 -2
9 9 8 8 8 8 8 8 8 8 8 8 8 8 8 8 8 8 8 8 7 7 7 7 7 8 8 7 7 7 7 7 7 7 7 8 8 8 8 7 7 7 7 7 7 7 7 7 7 7 7 7 7 7 7 7 6 6 5 5 5 4 4 4 3 3 3 2 2 2 1 1 1 0 -0 -0 -1 -1 -1 -2 -2 -2 -3 -3 -3
8 8 7 7 8 8 7 7 7 7 7 7 7 8 8 8 8 8 7 7 7 7 7 7 8 8 8 7 7 7 7 7 7 7 8 8 7 7 7 7 7 7 7 7 7 7 7 7 7 7 7 7 6 6 6 5 5 5 4 4 4 3 3 3 2 2 2 2 1 1 1 0 0 -0 -1 -1 -1 -2 -2 -3 -3 -3 -3 -4 -4
7 7 7 7 7 7 7 7 7 7 7 7 7 7 7 7 7 7 7 7 7 7 7 8 8 8 8 7 7 7 7 7 7 7 7 7 7 7 7 7 7 7 6 7 7 7 7 7 7 6 6 6 5 5 5 4 4 4 3 3 2 2 2 2 1 1 1 1 1 0 -0 -0 -1 -1 -1 -2 -2 -3 -3 -4 -4 -4 -4 -4 -5
Height
781 783 786 789 791 793 795 797 799 802 803 806 808 809 811 813 815 817 819 821 823 825 826 828 830 832 833 834 834 835 836 839 841 841 842 843 844 846 847 847 848 849 851 852 853 854 853 853 854 856 856 857 858 858 858 859 859 860 861 862 863 865 865 866 866 866 865 864 864 862 861 860 858 857 856 854 853 853 852 852 851 850 849 848 847
780 782 785 788 790 792 794 796 799 801 803 806 807 809 811 813 815 817 819 821 823 825 827 829 831 832 833 834 834 835 837 839 840 841 842 844 845 846 847 847 849 850 851 853 853 854 854 854 855 856 857 857 858 858 858 859 860 861 863 864 865 866 866 866 866 866 865 864 863 862 861 860 858 858 857 856 855 854 852 852 851 850 849 848 846
778 781 784 787 789 791 793 795 798 801 803 805 807 808 810 813 815 817 819 821 823 825 827 829 830 831 833 834 834 836 838 838 840 842 843 844 845 846 847 848 849 850 851 853 853 854 854 854 855 856 857 857 857 858 858 859 861 862 863 865 866 866 866 866 866 865 864 863 862 861 861 860 859 859 858 858 856 854 853 852 851 850 848 847 846
777 780 783 786 788 790 792 794 797 800 802 804 806 807 810 812 814 816 818 820 822 825 827 829 830 831 833 833 834 836 837 838 840 842 843 845 845 846 847 848 849 850 852 853 853 854 854 855 856 856 857 857 858 858 859 860 861 862 864 865 866 866 866 866 866 865 864 863 862 862 861 861 860 860 859 858 856 855 854 853 851 850 848 847 845
776 778 782 785 786 788 791 794 796 799 801 803 805 807 809 811 814 816 818 820 822 824 826 828 830 831 832 833 834 836 837 838 840 842 844 845 845 846 847 849 850 851 852 853 854 855 855 856 856 857 857 857 858 858 859 860 862 863 864 865 866 866 866 866 865 864 864 863 863 862 862 861 861 860 859 858 856 855 854 853 851 850 848 846 845
774 777 780 783 785 788 790 793 796 798 800 802 804 806 808 810 813 815 817 819 821 824 825 827 829 830 831 833 834 835 836 838 839 841 844 845 846 847 848 849 850 852 853 854 855 855 856 856 857 857 858 858 858 859 860 861 862 863 864 865 866 866 866 866 865 864 864 864 863 863 863 862 862 861 860 858 856 855 853 852 851 850 848 846 844
773 776 779 782 784 787 789 792 795 797 799 801 803 806 808 810 812 814 817 819 821 823 824 826 828 829 831 832 834 835 836 837 839 841 843 845 846 847 848 849 850 852 853 854 855 856 856 857 857 858 859 859 859 860 860 862 863 864 865 866 866 866 866 866 865 865 865 864 864 864 863 863 862 861 860 859 857 856 854 853 851 850 848 845 843
771 775 778 780 783 786 789 792 794 796 799 801 803 805 807 809 811 814 816 818 820 822 824 825 827 829 831 832 834 835 836 837 839 841 843 845 846 847 848 849 850 851 853 854 855 856 857 858 858 859 860 860 861 861 862 863 863 864 866 866 866 867 867 866 866 865 865 865 865 864 864 864 863 862 861 859 857 856 855 854 853 850 848 845 843
770 773 776 779 782 785 788 791 793 796 798 800 803 805 807 809 811 814 816 818 820 822 823 825 827 829 830 832 833 834 835 837 838 840 842 844 845 846 847 849 850 851 852 854 855 857 858 858 859 860 861 862 862 863 863 864 864 865 866 867 867 867 867 867 866 866 866 866 865 865 865 864 863 862 861 859 858 857 855 854 853 851 849 846 843
769 772 775 778 782 785 787 790 793 795 798 800 802 804 806 809 811 814 816 818 820 822 823 825 826 828 829 831 832 834 835 836 838 840 841 843 844 845 847 848 849 850 851 853 855 856 858 858 859 860 861 862 863 864 864 865 865 866 867 867 867 868 868 867 866 866 866 866 866 865 864 864 863 862 861 859 858 857 855 854 852 850 848 845 842
768 771 774 777 781 784 786 789 792 794 797 799 801 803 806 808 810 813 816 818 820 821 823 825 826 828 829 830 832 833 834 836 837 839 841 842 843 844 846 847 848 849 851 852 854 856 857 858 859 860 861 862 864 865 865 866 866 866 867 867 868 868 868 868 867 867 866 866 866 865 864 863 862 861 861 859 858 857 856 854 852 850 847 845 843
767 771 773 777 780 782 785 788 791 794 796 798 801 803 805 807 810 813 815 817 819 821 823 825 826 827 829 830 831 832 834 836 837 839 840 841 843 844 845 846 847 849 850 852 853 854 855 856 857 858 860 862 864 866 866 866 867 867 867 867 868 868 868 868 867 867 866 866 866 865 864 863 862 861 860 859 858 857 856 854 852 850 849 848 846
766 770 773 776 778 781 785 787 790 793 796 798 800 802 804 806 809 812 814 816 818 820 822 824 825 827 828 829 830 832 834 835 837 838 840 841 843 844 845 846 847 848 850 851 852 852 853 854 855 857 858 860 862 865 866 866 866 867 867 867 867 868 868 868 867 867 866 866 866 865 864 863 862 860 859 858 857 856 855 853 851 850 849 848 846
765 769 772 775 777 780 784 787 790 793 795 797 800 801 803 805 808 811 813 815 817 819 821 823 824 826 827 828 830 832 833 835 836 838 840 841 842 844 845 846 847 848 849 850 851 852 853 854 855 856 857 858 860 863 864 865 866 866 866 867 867 867 868 867 867 866 866 866 865 865 864 863 862 861 859 859 858 856 854 852 851 850 849 848 847
764 768 771 774 777 779 783 786 789 792 794 796 798 800 802 804 807 810 812 814 816 817 819 821 823 825 826 827 829 831 833 835 837 838 840 841 842 844 845 846 847 848 849 850 851 852 853 854 855 856 857 857 859 861 863 864 865 866 866 866 866 866 866 867 866 866 866 865 865 865 864 863 862 861 860 859 858 856 854 852 851 850 849 848 847
763 767 770 773 775 778 782 785 788 791 793 795 797 799 801 803 806 809 811 813 815 817 819 821 822 824 825 826 829 831 833 835 836 838 840 841 842 843 845 846 847 848 849 851 852 853 854 855 855 856 857 857 858 860 862 864 864 865 865 865 865 865 865 866 866 865 865 865 865 864 863 862 861 860 860 859 857 856 854 853 852 850 849 847 845
762 765 768 771 774 778 781 784 787 790 792 794 796 798 800 802 805 807 810 812 814 816 818 820 821 822 823 825 827 830 832 834 836 838 840 841 843 843 845 846 847 848 849 851 851 852 853 854 855 856 857 857 858 859 861 863 864 864 865 865 865 865 865 865 865 864 864 864 864 863 862 861 860 859 859 858 857 855 854 853 851 850 848 846 845
761 764 767 770 773 777 780 783 786 788 790 792 794 796 798 800 803 805 808 809 812 814 816 818 820 821 822 825 827 829 832 834 837 839 840 842 843 844 845 845 847 848 849 850 851 852 853 854 855 856 858 858 857 858 860 862 863 863 864 864 864 865 865 864 864 863 863 863 863 862 861 860 859 858 858 857 856 855 854 853 851 849 848 847 845
759 762 766 769 773 776 779 781 784 786 788 790 791 793 795 798 800 803 806 808 810 813 815 818 819 820 822 825 827 830 833 835 837 838 839 841 843 844 845 845 846 848 848 849 851 852 853 854 855 856 858 858 857 858 859 861 862 863 863 864 864 864 864 864 863 863 863 862 862 861 860 859 859 858 857 856 856 855 854 853 852 850 849 847 845
758 761 764 768 772 774 777 779 781 783 785 787 789 791 793 796 798 801 804 806 809 812 815 817 819 820 822 825 827 829 832 834 835 836 837 839 841 843 844 845 846 847 848 849 850 851 852 853 854 856 857 857 857 857 858 860 861 861 862 863 863 863 863 863 863 862 862 862 861 860 860 859 858 858 857 856 855 854 853 853 852 851 849 847 845
757 761 763 766 770 772 774 776 779 781 784 786 789 791 792 794 797 799 802 805 808 811 814 816 818 820 822 824 826 827 830 832 834 834 835 838 839 841 843 844 845 846 848 849 849 850 851 852 853 855 856 856 856 856 857 859 859 860 861 862 862 863 862 862 862 861 861 861 860 860 859 858 858 858 857 856 855 854 853 852 852 851 849 847 845
756 760 763 765 768 769 771 774 777 780 783 786 788 790 791 793 796 798 801 804 807 810 813 815 817 819 821 823 825 826 828 831 833 833 834 836 838 839 840 842 843 845 847 847 847 848 850 851 852 853 854 855 855 856 856 857 858 859 860 860 861 862 862 861 861 861 860 860 859 859 858 858 858 857 856 856 854 853 852 851 851 850 848 846 844
756 759 762 764 766 768 770 774 777 780 783 785 788 790 791 794 796 798 801 804 806 809 812 814 816 818 821 823 824 826 827 829 831 832 833 835 836 838 839 840 842 843 845 845 846 847 848 850 850 851 852 853 854 855 855 856 857 858 859 859 860 860 860 860 860 860 859 859 858 858 857 857 857 856 856 855 854 852 851 850 849 848 847 845 843
755 758 761 763 765 768 770 773 777 780 782 785 787 789 792 794 796 799 801 803 806 808 810 813 815 817 819 821 822 824 825 827 828 830 832 833 835 836 838 839 840 841 842 843 844 845 847 848 849 850 851 852 853 854 854 855 856 856 857 858 858 859 859 859 859 858 858 858 857 857 856 856 855 855 855 854 853 852 851 849 848 847 845 843 842
755 758 760 763 765 768 770 774 777 779 781 784 786 788 791 793 796 799 801 803 805 806 809 811 812 814 816 818 819 821 822 824 826 828 830 832 834 836 837 838 839 840 841 842 843 844 845 846 847 849 850 851 852 853 853 854 854 855 856 856 857 857 858 858 857 857 857 856 856 856 855 855 854 854 853 852 851 850 849 848 847 845 844 842 840
755 758 760 763 765 768 770 774 776 779 781 784 786 788 790 792 795 797 799 801 803 805 807 809 810 812 813 815 816 818 820 822 824 826 828 831 833 835 836 837 838 839 840 841 841 842 843 844 845 847 849 850 851 852 852 852 853 853 854 855 855 856 856 856 856 855 855 854 854 854 854 853 853 852 852 851 850 849 848 847 846 844 842 841 839
755 758 760 763 765 768 770 773 775 778 781 783 786 788 789 791 793 795 797 800 802 805 807 808 809 811 813 814 816 817 819 821 823 825 827 829 831 832 834 835 836 838 839 840 840 841 842 843 845 847 848 850 850 851 851 851 852 852 852 853 853 854 854 854 854 853 853 853 853 853 853 852 852 851 850 849 848 847 847 845 844 843 841 839 838
755 758 761 763 765 768 771 773 774 777 780 782 784 787 788 790 791 792 795 797 800 803 806 807 808 810 811 813 815 817 819 820 821 822 824 826 828 829 831 833 834 836 837 839 839 840 841 843 845 847 848 849 849 850 850 850 850 851 851 851 852 852 852 852 852 852 851 851 852 852 852 851 850 850 849 848 847 846 845 844 843 841 840 838 837
755 758 761 763 766 768 770 773 774 775 778 781 783 786 787 789 790 792 794 796 798 801 802 803 805 807 809 811 813 815 817 818 818 820 822 823 826 828 829 831 833 834 836 838 839 840 841 842 843 845 847 848 848 849 849 849 849 849 849 849 850 850 850 851 850 850 850 849 850 850 850 850 849 848 847 847 846 845 844 843 841 840 838 837 835
756 759 761 763 766 767 770 772 774 775 777 779 782 785 787 789 791 793 795 797 798 799 800 801 803 806 807 809 810 812 813 815 817 820 822 823 825 827 829 831 833 834 836 837 838 839 840 841 841 843 844 846 847 847 847 847 847 847 847 847 847 848 848 848 848 848 848 848 848 848 848 848 847 846 846 845 844 843 842 841 839 838 837 835 834
757 759 761 763 765 767 769 771 773 775 776 778 780 783 786 789 791 793 794 796 797 799 801 802 803 805 806 808 809 811 813 814 816 819 821 822 824 826 829 831 832 834 835 836 838 839 840 841 841 841 843 844 844 845 845 845 845 845 845 845 845 845 846 846 846 846 847 846 846 846 846 846 845 845 844 844 843 841 840 839 838 837 835 834 832
757 758 760 763 764 766 768 770 772 774 775 777 779 781 784 787 789 792 794 795 797 798 800 801 803 804 806 807 809 810 812 813 815 817 819 821 822 824 826 828 830 832 834 835 836 837 839 839 839 839 841 842 842 842 843 842 842 842 842 842 843 843 843 843 843 843 844 844 844 844 844 843 843 843 843 842 841 839 838 837 836 835 833 832 830
756 758 760 762 764 766 767 769 771 773 774 776 778 780 782 784 786 789 792 794 796 797 799 800 802 803 805 806 807 808 810 811 813 815 817 819 821 822 824 826 828 830 831 832 833 834 835 835 835 835 837 838 839 839 840 840 840 840 839 839 840 840 840 841 841 841 842 842 842 842 841 841 841 841 841 840 839 837 836 835 834 833 831 830 828
756 758 759 761 763 765 766 768 770 772 773 775 777 779 781 783 784 786 789 792 794 797 798 799 801 802 804 805 806 807 808 809 811 813 815 817 819 820 822 825 827 829 830 830 830 831 832 832 832 832 833 835 836 836 837 837 837 836 836 836 836 837 837 838 838 839 839 840 840 839 839 840 840 839 839 838 836 835 835 833 832 831 829 828 826
756 758 760 761 762 764 766 767 769 771 773 774 776 779 781 782 783 785 787 789 792 795 797 798 800 801 802 803 804 805 806 808 809 811 812 814 816 818 821 823 825 826 827 828 828 829 829 829 829 829 830 832 833 833 834 834 834 833 832 832 832 833 835 835 836 836 837 837 837 837 838 838 838 837 837 835 834 833 832 831 830 829 828 827 825
755 757 759 761 762 763 765 767 768 770 772 774 776 779 780 781 783 785 787 789 791 793 795 797 798 799 801 802 803 804 805 807 808 809 810 812 814 816 818 820 821 822 823 824 825 826 827 828 828 828 829 830 831 831 831 832 832 831 830 829 830 831 832 832 833 834 834 835 835 836 836 836 836 835 834 833 832 831 830 830 829 827 826 825 823
754 756 758 760 761 763 764 766 768 770 773 775 777 778 779 781 783 785 786 788 789 791 793 795 796 798 799 800 802 803 804 805 806 807 809 811 813 815 816 817 817 819 820 822 823 825 826 827 827 828 828 829 829 829 830 830 830 830 829 828 828 829 829 830 831 831 832 833 833 834 834 833 833 832 832 831 830 830 829 828 827 826 825 823 822
753 755 756 758 760 761 764 766 767 770 772 774 776 777 779 781 783 785 786 788 789 791 792 794 795 797 798 799 800 801 802 804 806 807 809 811 813 814 815 816 817 818 819 820 822 823 824 825 826 826 827 828 828 828 828 829 829 828 828 827 827 828 828 828 829 829 830 831 832 832 831 831 831 830 830 829 828 828 827 826 825 824 822 821 820
752 753 755 757 758 760 762 764 766 768 770 772 774 776 778 780 782 784 786 788 789 790 791 793 794 796 797 798 799 800 802 803 804 806 808 810 812 813 815 816 817 817 818 819 821 822 823 824 825 825 826 826 827 827 827 828 828 828 827 827 826 827 827 827 828 828 829 830 830 830 829 829 829 829 828 827 827 826 825 824 823 822 821 820 819
749 751 753 755 757 759 760 762 764 766 768 770 772 774 775 776 778 780 783 785 787 788 790 791 793 794 796 797 798 799 801 802 803 805 807 809 811 813 814 815 816 816 817 818 819 820 822 823 824 824 825 825 826 826 826 827 827 827 826 826 826 826 826 827 827 828 828 828 828 828 828 827 827 827 826 826 825 824 824 823 822 821 820 819 818
748 751 752 754 756 757 759 761 763 764 766 768 770 771 773 775 776 779 781 783 784 786 788 790 791 793 795 797 798 799 801 802 803 805 806 808 810 812 813 814 815 815 816 817 818 820 821 822 823 824 825 825 825 825 825 826 826 826 825 825 825 825 825 826 826 826 826 826 826 826 826 826 825 825 825 824 823 823 822 821 821 820 819 818 817
748 750 752 753 755 756 758 760 761 763 765 767 768 770 772 773 775 777 779 781 783 785 787 789 791 792 794 796 798 800 801 802 803 805 806 807 809 810 811 812 813 814 815 816 818 819 821 822 823 824 824 824 824 824 824 825 825 824 824 824 824 824 825 825 825 825 825 825 825 825 825 825 824 824 824 823 822 821 820 820 819 818 817 817 816
748 749 751 753 755 756 758 759 760 762 764 765 766 768 770 772 774 776 778 780 782 784 786 788 790 791 794 795 797 799 801 802 803 804 806 807 808 809 810 811 812 813 815 816 817 819 820 821 822 823 823 823 823 823 823 823 823 823 823 823 823 824 824 824 824 824 824 824 824 824 824 824 823 823 822 821 820 820 819 818 818 817 816 815 815
748 750 752 753 755 756 758 759 760 762 763 765 766 768 769 771 773 775 777 779 781 784 786 787 789 791 793 795 796 798 800 801 802 804 805 806 807 808 809 811 812 813 814 815 816 818 818 819 820 821 822 822 822 822 822 822 822 823 823 823 823 823 823 823 823 823 823 823 823 823 823 822 822 821 820 820 819 819 818 818 817 816 815 815 814
748 750 752 753 754 756 757 758 760 762 764 765 767 768 770 771 773 774 777 779 781 783 785 787 788 790 792 793 794 796 797 799 801 802 803 804 805 807 808 810 811 812 813 814 815 816 817 818 819 820 821 821 821 821 821 822 822 822 822 822 822 822 822 822 822 822 822 822 822 822 821 821 820 820 819 819 819 818 817 817 816 816 815 814 813
748 750 751 753 754 755 757 758 760 761 763 765 766 768 770 772 773 774 777 778 780 783 784 786 788 789 790 792 793 794 795 798 800 801 802 803 804 806 808 809 810 811 812 813 814 815 816 817 818 819 819 820 820 820 821 821 821 821 821 821 821 821 821 821 821 821 821 821 821 820 820 819 819 819 819 818 818 817 817 816 816 815 815 814 813
749 750 751 753 754 756 757 758 760 761 763 764 766 768 770 772 773 775 777 778 780 782 783 785 787 788 789 791 792 792 794 797 798 800 801 802 803 805 807 808 809 811 812 813 814 814 815 816 817 817 818 819 819 820 820 820 820 820 820 820 820 820 820 821 821 820 820 820 819 819 819 819 818 818 818 817 817 817 816 816 815 815 814 814 813
749 750 752 753 754 756 757 758 760 761 763 764 766 767 769 771 773 774 776 777 779 781 783 784 786 787 789 790 791 792 794 796 798 799 800 802 803 805 806 807 809 810 811 812 813 813 814 815 816 816 817 817 818 818 818 819 819 819 819 819 819 820 820 820 820 819 819 819 818 818 818 818 818 817 817 817 816 816 815 815 815 814 814 813 812
749 750 752 753 754 756 757 758 760 761 762 764 766 767 769 771 772 774 776 777 779 781 782 784 785 787 788 789 790 792 794 796 798 799 800 801 803 804 806 807 808 809 810 811 812 812 813 814 815 815 816 816 817 817 817 817 818 818 818 818 818 819 819 819 818 818 818 818 818 818 817 817 817 817 816 816 816 816 815 815 814 814 813 813 812
749 750 752 753 754 756 757 758 759 761 762 764 765 766 768 770 772 773 775 777 778 780 781 783 784 786 787 788 790 792 794 795 797 798 800 801 803 804 805 807 808 808 809 810 811 812 812 813 814 814 815 815 815 816 816 816 817 817 817 817 817 817 818 818 818 818 818 817 817 817 817 817 817 816 816 816 816 815 815 815 814 814 814 813 812
749 750 752 753 754 755 757 758 759 761 762 763 765 766 768 770 771 773 775 776 777 779 781 782 784 785 786 788 789 791 793 794 796 798 799 800 802 803 804 805 806 807 808 809 810 811 812 812 812 813 814 814 815 815 815 815 816 816 816 816 817 817 817 817 817 817 817 817 817 817 816 816 816 816 816 816 816 815 815 815 814 814 814 813 812
Wind_Speed
28 28 29 29 29 30 30 29 27 25 25 25 27 28 28 28 27 26 26 25 23 22 22 22 22 22 22 22 21 21 23 23 21 21 21 21 20 21 21 22 22 21 19 18 18 18 19 20 18 16 16 16 16 15 15 15 14 14 13 12 12 11 10 9 5 4 7 9 12 15 16 17 20 23 25 27 25 21 20 18 19 22 22 24 23
29 29 30 30 30 31 31 30 28 27 26 26 27 29 29 28 27 27 26 26 24 22 22 22 22 23 22 22 21 21 22 23 22 21 21 20 20 21 21 21 21 20 19 18 17 17 18 19 17 15 15 15 15 15 15 15 14 13 12 10 9 8 7 6 5 5 7 10 13 15 17 18 20 23 25 27 25 21 20 20 21 23 23 24 24
31 30 31 31 31 31 31 30 29 28 28 27 29 30 30 29 28 28 27 25 23 21 21 22 22 23 22 22 21 21 22 22 21 21 21 20 20 21 21 21 21 20 19 18 17 18 18 18 16 15 15 15 14 13 13 14 14 13 11 9 6 6 6 6 6 6 7 9 14 16 17 19 20 22 24 25 24 22 21 21 21 23 24 25 25
32 31 32 32 31 31 30 30 30 29 28 29 30 30 30 30 29 28 27 24 21 21 21 21 22 22 22 22 22 22 22 21 20 20 20 19 20 21 21 19 19 19 19 18 17 18 19 18 16 14 14 15 14 13 12 12 11 10 10 8 6 6 7 7 8 8 7 9 14 16 16 17 18 21 24 25 25 23 21 21 22 24 25 25 25
32 32 33 32 32 32 30 31 31 29 29 30 30 30 30 30 28 27 25 23 21 22 22 22 22 22 22 22 22 22 21 21 21 21 19 19 19 20 20 18 18 18 17 17 17 17 17 16 15 14 14 15 15 13 11 10 9 8 8 7 6 7 8 8 9 10 10 12 14 15 15 17 18 21 24 26 26 25 23 23 23 25 26 26 26
32 32 33 33 32 32 31 31 30 29 30 31 30 30 30 28 27 26 25 24 23 23 23 22 21 21 22 22 22 22 21 20 21 21 19 19 19 19 19 18 18 17 17 16 16 16 16 15 14 13 14 16 15 12 10 9 8 7 8 7 6 6 8 8 9 11 13 14 15 14 15 17 18 20 23 24 26 27 26 26 25 27 28 28 28
32 32 32 32 32 31 30 30 29 30 31 31 30 30 29 27 26 26 25 25 25 24 23 21 20 20 21 22 21 21 20 21 21 20 19 19 20 19 19 19 19 18 17 16 16 15 15 14 13 13 14 15 14 11 10 9 8 8 8 7 6 6 7 8 9 12 14 15 15 14 15 16 16 19 21 24 26 26 26 26 25 28 30 30 30
32 32 31 31 31 30 30 29 29 30 31 31 30 29 28 27 26 26 26 25 25 25 23 21 20 20 21 21 21 20 20 21 21 20 20 20 20 20 20 20 19 18 17 16 15 14 13 12 12 11 12 12 11 10 9 10 10 10 9 9 8 8 9 9 9 11 13 14 14 13 13 14 14 17 20 22 24 25 25 24 24 27 30 30 30
31 32 31 30 30 30 30 29 30 30 30 30 30 29 28 27 26 26 26 25 25 24 22 21 21 21 21 21 20 20 21 22 22 22 22 21 20 20 20 20 19 18 17 16 14 13 12 11 10 9 10 10 10 9 10 10 11 12 12 11 11 11 10 10 9 9 10 12 13 12 12 13 13 15 17 19 21 22 25 26 25 27 29 30 30
30 31 30 30 30 30 30 30 30 30 31 30 30 30 28 27 27 27 26 24 24 24 22 21 21 22 22 21 21 21 22 22 22 23 23 22 21 21 21 20 19 19 18 16 14 12 11 10 10 11 11 11 10 10 11 11 11 12 12 11 12 12 11 11 10 8 8 9 11 10 10 12 12 13 15 17 19 22 24 26 26 27 29 29 29
30 30 30 30 30 29 30 30 30 30 31 31 31 30 29 28 28 27 26 25 24 23 22 21 21 21 22 22 22 22 22 22 23 23 22 22 22 22 22 21 20 18 17 16 14 14 14 14 14 14 14 13 12 11 11 11 11 10 9 9 9 9 10 10 9 8 7 7 8 7 8 11 13 14 14 16 18 21 23 24 24 27 28 24 22
30 29 29 30 30 29 30 30 31 31 31 31 31 31 30 29 29 28 26 25 24 22 22 21 20 21 22 22 23 23 23 23 23 23 22 22 22 23 22 21 20 18 17 15 15 17 18 18 17 16 15 15 13 11 10 10 8 6 5 5 5 5 7 9 9 9 7 7 7 7 8 10 13 15 16 16 18 19 21 23 24 26 27 23 21
30 29 29 30 30 29 30 31 31 32 31 31 31 31 30 29 29 28 26 25 24 23 22 21 20 21 23 23 24 23 23 23 23 23 23 23 22 22 22 21 20 19 17 16 18 20 21 20 20 18 17 16 14 11 9 7 4 2 2 3 4 4 3 5 8 8 8 7 7 8 9 10 13 16 16 16 18 19 20 22 24 24 25 24 24
30 29 29 30 30 30 30 31 32 31 30 30 31 30 29 29 28 27 26 25 24 24 22 21 21 22 23 24 24 23 23 23 23 23 23 22 22 22 22 21 21 19 18 18 20 21 21 20 20 18 17 16 14 11 9 6 3 1 2 5 7 7 6 3 4 7 8 8 9 10 11 12 13 14 15 16 17 18 18 21 22 22 23 23 24
30 30 30 30 31 31 31 31 31 31 30 30 30 30 30 29 28 28 27 26 25 25 24 23 22 23 24 24 24 22 23 23 23 23 23 22 22 23 23 22 20 19 17 17 19 20 19 18 18 17 17 16 13 11 9 5 3 2 3 6 7 7 7 5 3 6 8 10 11 13 15 15 14 12 13 14 13 13 15 17 18 18 20 22 23
30 31 31 31 31 31 31 31 31 31 31 30 30 30 29 29 28 28 27 26 25 25 24 23 23 24 24 24 24 23 23 24 23 23 23 23 23 23 22 22 21 19 17 16 17 16 15 14 15 15 16 14 12 10 8 5 4 4 5 6 5 3 4 3 3 6 8 8 10 13 15 14 12 10 10 11 10 11 13 15 16 16 18 21 22
30 31 31 31 31 31 31 31 31 31 31 30 29 29 29 28 28 28 27 26 25 25 24 23 24 24 24 24 24 23 23 24 24 24 23 23 23 23 23 22 20 19 18 18 17 15 14 14 13 13 13 12 11 10 9 7 6 3 2 4 3 2 4 1 3 5 6 6 8 12 13 12 9 6 7 10 11 11 12 15 17 17 18 18 17
31 32 31 31 31 30 31 32 32 31 31 31 30 29 29 29 29 29 28 27 26 25 24 23 23 23 23 23 23 23 24 24 24 24 23 22 21 23 24 22 20 20 20 19 18 17 16 15 14 12 11 11 11 11 10 10 7 3 1 1 1 2 3 2 6 4 3 5 8 10 9 9 6 4 8 12 12 11 11 13 16 17 18 18 16
32 32 31 30 30 30 32 33 32 31 32 32 33 32 31 31 31 30 29 28 26 25 24 23 23 22 22 22 21 21 22 23 24 24 24 22 20 22 23 22 20 21 20 19 17 17 16 15 14 12 11 11 11 11 11 11 8 5 4 3 2 3 4 7 6 3 4 7 9 8 8 8 5 5 9 12 11 10 11 12 15 17 18 20 20
31 31 31 31 30 31 32 32 33 34 34 34 34 33 32 32 32 31 29 27 26 25 24 23 22 20 20 20 20 20 20 23 26 27 27 25 22 21 22 22 21 20 18 17 17 17 16 16 14 13 12 11 11 11 11 11 10 8 6 6 6 5 6 6 3 3 6 8 9 8 8 7 4 5 9 11 9 10 11 11 13 18 19 20 22
30 31 32 33 32 32 33 34 35 35 35 34 33 32 32 33 33 32 30 27 26 25 25 24 22 20 19 20 22 22 21 24 28 30 29 28 25 22 21 21 21 20 19 18 18 17 17 17 17 15 14 12 11 11 12 12 11 11 9 8 7 6 5 4 2 3 6 7 8 9 7 5 4 6 10 11 10 11 12 11 11 16 20 21 22
31 31 32 32 32 32 34 35 34 34 33 33 32 31 31 31 32 30 28 27 27 26 25 25 23 20 20 21 22 22 20 21 27 31 31 29 27 24 21 20 20 20 20 20 19 17 17 17 18 19 18 15 12 11 12 12 12 12 10 9 8 7 5 4 4 5 6 9 11 10 8 5 4 7 9 11 12 13 12 10 9 13 18 20 20
32 32 32 32 31 31 32 32 31 31 31 31 31 29 29 29 30 29 26 26 26 26 25 24 23 22 21 21 20 20 19 20 26 32 32 30 28 26 22 21 21 20 20 20 20 19 19 17 17 19 21 19 15 12 12 12 12 11 10 9 8 7 6 5 6 7 8 11 12 11 7 4 5 7 8 11 15 15 12 10 10 13 16 17 18
31 32 32 31 31 30 29 29 29 29 29 30 29 28 28 29 29 27 25 25 26 25 24 24 24 23 22 22 20 20 20 21 25 32 34 32 30 27 22 20 20 19 17 16 17 19 20 19 17 17 19 19 17 14 13 13 12 11 10 9 8 8 7 7 7 7 8 10 11 9 6 4 5 7 8 12 15 13 11 11 11 12 14 15 18
29 30 30 30 29 29 28 28 28 28 28 29 30 30 30 30 29 27 26 25 26 26 25 25 26 25 24 24 23 22 22 21 24 31 34 32 30 28 24 19 18 17 14 11 12 15 17 18 18 18 17 18 17 15 14 13 12 11 10 10 10 10 9 8 8 8 9 10 8 7 6 5 6 7 9 12 12 10 13 14 12 12 14 16 19
27 27 28 27 28 28 27 27 28 28 28 29 31 31 31 31 30 28 27 26 26 27 26 26 26 25 25 25 24 23 22 22 23 29 33 33 31 30 26 21 17 15 12 8 8 11 13 15 19 20 18 16 15 13 12 12 12 12 12 12 12 11 10 10 9 10 10 10 8 6 6 6 7 8 8 10 11 11 14 15 15 15 15 18 21
27 26 26 25 26 26 27 27 28 29 29 29 29 29 30 31 31 30 29 27 25 25 25 25 24 23 23 23 23 22 22 21 21 25 31 34 34 32 29 25 20 16 13 10 8 9 10 12 15 16 15 12 11 10 10 11 12 13 13 13 13 12 11 11 11 12 13 13 10 7 6 7 7 8 9 10 11 11 13 15 17 17 16 19 22
27 26 25 25 25 26 28 28 29 30 30 30 30 30 31 32 32 31 31 30 27 26 25 25 24 23 23 22 22 21 21 22 22 24 29 35 37 36 33 28 24 20 16 13 11 10 11 11 11 10 9 9 9 9 9 10 12 13 14 14 14 14 14 14 14 15 16 16 14 12 9 8 8 8 9 11 11 11 13 15 16 17 16 18 21
26 26 25 25 25 27 28 29 29 31 30 29 28 28 29 31 30 29 28 28 28 28 27 27 27 26 24 24 23 23 24 25 25 23 26 33 38 38 36 32 27 22 18 14 12 11 10 10 9 8 7 8 9 10 11 12 13 14 15 15 15 16 16 17 18 18 18 19 19 17 13 10 9 9 10 12 13 13 14 15 15 16 17 19 22
24 25 25 25 26 28 28 27 28 29 29 28 26 24 23 24 25 25 24 24 25 26 26 26 26 25 25 26 26 25 26 27 24 20 22 28 34 36 37 34 29 23 19 14 12 11 11 11 10 9 9 9 10 12 14 15 15 15 15 16 16 16 17 17 18 18 17 16 15 15 12 10 9 10 12 14 16 15 14 14 15 17 18 20 21
23 24 25 26 27 29 28 26 27 27 28 28 27 25 22 19 19 21 22 23 23 23 23 23 23 24 24 25 25 25 25 25 22 18 18 22 29 32 34 33 30 25 19 16 14 14 12 11 10 10 10 10 12 13 14 14 15 15 15 16 16 17 18 18 18 19 17 12 10 11 11 11 11 12 14 16 16 14 14 15 17 19 20 21 22
24 24 25 26 29 30 28 27 27 26 26 26 27 26 24 21 18 18 19 22 22 21 20 20 21 22 23 23 22 23 24 24 22 19 16 18 23 27 30 32 32 28 22 18 17 16 15 14 13 11 11 13 15 16 16 17 17 17 17 18 19 19 19 17 16 18 19 16 14 14 14 14 14 14 15 14 13 14 16 18 20 21 22 23 24
25 24 25 26 28 28 27 27 27 26 26 26 27 27 27 25 22 19 18 18 19 18 17 17 17 18 21 22 21 20 22 24 23 20 17 18 20 24 27 28 29 28 25 22 20 20 20 20 19 17 16 15 15 17 18 18 18 20 21 22 20 18 16 15 15 16 19 19 18 17 16 16 16 15 13 13 13 15 19 21 23 24 25 26 27
25 24 25 26 28 27 27 27 27 26 25 27 27 27 27 27 27 25 22 19 17 15 14 14 14 15 18 22 21 18 19 21 21 20 20 20 22 25 27 25 23 23 23 23 23 23 22 22 23 23 22 18 16 16 15 13 14 17 20 22 20 16 14 12 12 13 16 18 19 20 19 17 15 13 12 12 13 16 20 22 24 25 25 25 25
24 24 25 26 27 28 27 27 28 26 25 26 27 26 26 27 28 27 26 24 21 18 16 14 14 13 15 18 19 18 18 18 19 21 23 24 26 27 27 25 23 22 21 22 23 25 24 24 24 26 24 20 17 16 13 11 11 11 12 15 17 15 11 9 7 9 11 14 16 17 15 12 10 10 12 13 14 17 20 21 21 20 20 21 21
23 24 25 26 26 27 26 26 27 25 23 23 24 24 24 26 27 26 25 24 23 21 19 17 16 15 14 14 14 15 16 16 19 23 26 28 29 30 29 28 27 26 25 26 27 27 27 25 24 23 21 19 18 17 15 13 10 8 7 8 11 11 10 9 8 8 9 9 9 10 9 8 9 11 12 14 16 17 18 17 16 16 17 20 21
21 22 24 25 25 25 24 24 23 23 21 20 20 21 23 26 27 26 25 24 24 23 22 20 19 17 14 13 12 13 13 15 18 22 26 28 30 30 29 29 29 28 28 28 28 26 25 23 22 21 21 20 21 20 18 15 12 8 6 5 7 8 9 9 8 9 9 7 7 7 7 10 12 13 14 16 17 16 15 14 15 17 19 21 20
20 20 22 24 24 23 23 22 21 21 21 20 19 21 23 25 25 24 23 23 24 24 23 21 20 19 17 17 17 17 18 20 22 25 27 28 29 29 28 28 27 27 27 27 26 25 25 24 22 22 22 23 23 22 20 17 13 9 6 5 5 4 5 6 6 6 5 4 5 7 10 12 14 15 15 15 14 12 13 14 16 18 18 17 15
21 20 21 22 23 22 22 23 22 21 21 20 19 21 24 26 25 24 23 23 24 24 23 22 21 21 21 21 22 23 24 26 27 28 28 29 29 29 27 25 24 24 25 25 25 24 24 24 23 22 23 23 23 23 22 19 15 9 6 6 4 3 3 3 2 1 2 4 6 8 10 12 12 12 11 10 10 11 13 14 15 14 13 13 13
22 21 22 22 22 22 22 23 23 23 23 22 22 22 25 27 28 27 26 26 25 25 25 25 24 24 23 24 25 26 27 28 28 28 29 29 28 26 25 23 23 23 24 24 24 23 22 22 21 20 20 20 21 22 22 20 15 9 6 5 3 3 2 1 1 2 5 7 8 9 9 9 9 9 9 10 11 12 12 12 11 11 12 13 14
21 21 22 22 22 22 22 22 23 24 24 23 23 24 26 27 28 27 27 27 27 26 26 26 26 25 25 25 25 25 26 26 26 26 27 27 26 25 23 23 23 24 23 22 21 19 18 17 16 14 13 13 14 15 14 12 8 5 4 3 2 1 2 3 4 7 8 9 10 10 9 9 9 10 10 12 12 12 12 11 11 12 13 14 15
20 22 23 22 22 22 22 22 23 25 24 23 23 25 26 27 27 28 28 27 27 26 26 25 25 25 25 25 24 25 25 23 23 23 23 23 22 22 21 21 21 22 21 20 18 16 13 11 10 9 8 7 6 5 5 5 4 3 3 2 1 2 4 6 7 9 9 9 9 9 9 9 10 11 12 13 13 12 12 12 12 13 14 15 15
20 22 23 22 21 21 22 23 24 25 26 25 24 25 25 26 27 28 27 26 26 25 24 24 24 24 24 23 23 24 25 23 21 21 21 21 21 20 18 18 17 16 17 17 16 15 13 12 10 9 7 7 6 5 3 3 3 3 2 2 2 4 6 7 9 10 10 9 9 9 10 11 12 13 13 13 12 11 11 12 13 13 13 13 14
20 22 22 21 21 20 21 22 23 24 24 24 23 23 24 26 27 27 26 25 24 23 23 22 22 22 22 21 21 23 24 22 20 20 21 21 21 20 18 16 14 13 13 14 14 15 16 15 12 9 7 6 5 5 4 4 3 2 2 4 5 7 8 10 11 11 10 9 9 10 11 12 12 12 11 11 10 10 11 12 12 12 12 14 16
21 22 21 20 20 21 21 21 22 21 21 21 21 22 23 24 25 25 25 24 23 23 21 20 20 20 21 20 20 22 24 23 20 19 20 20 20 20 18 16 14 13 12 12 11 11 12 12 10 8 7 6 5 5 5 5 4 5 6 8 8 9 9 9 9 9 9 10 11 12 12 11 9 8 7 8 9 10 10 10 10 12 13 15 15
21 21 20 19 20 21 20 20 21 21 21 21 22 22 21 22 22 23 22 22 23 22 19 19 20 19 19 18 18 20 23 23 19 17 18 19 18 17 17 15 14 12 10 7 6 6 6 7 8 9 9 7 6 6 6 6 7 8 8 9 9 8 8 7 7 8 10 10 11 11 9 7 6 5 6 7 8 8 8 9 10 12 13 13 13
19 20 19 19 19 20 20 20 21 21 20 21 22 22 21 20 21 21 20 20 21 20 18 18 20 18 16 17 18 19 21 23 19 16 17 16 14 14 14 13 11 9 7 6 7 7 7 8 10 10 9 8 8 8 8 8 9 9 8 8 7 7 7 7 8 9 9 9 8 8 6 5 4 5 6 7 7 7 8 9 10 11 12 11 12
16 17 18 18 18 19 19 19 20 20 20 21 22 22 20 19 19 20 19 19 20 20 18 18 18 16 16 17 17 17 19 21 18 15 15 15 14 13 12 11 9 9 9 8 9 10 10 10 10 9 9 9 10 10 10 10 9 8 7 7 7 7 7 8 8 8 7 6 5 5 4 4 4 4 5 5 6 7 9 10 10 11 11 11 13
15 16 17 17 17 17 17 18 19 20 20 20 20 20 18 18 19 20 19 19 19 19 18 18 18 17 17 17 17 17 19 19 17 15 16 15 14 12 11 11 11 11 10 11 11 12 11 11 11 10 10 11 11 10 10 9 8 7 7 7 7 7 6 6 5 4 3 3 3 3 3 4 4 4 4 5 6 8 8 9 10 11 11 12 13
14 15 16 16 16 16 16 16 17 18 18 19 19 19 18 19 21 21 19 18 17 17 18 19 20 19 18 17 18 19 21 21 19 18 17 16 15 14 13 12 12 12 12 12 13 12 11 11 11 11 11 11 11 10 9 8 7 6 6 6 5 5 4 3 2 2 2 2 3 3 3 4 4 4 4 6 7 7 8 9 10 10 11 11 12
14 15 16 16 17 17 17 16 16 18 19 19 20 19 19 20 21 21 20 19 18 18 19 20 20 18 17 17 18 20 21 21 20 18 16 15 14 14 13 13 12 13 13 13 13 12 11 11 11 11 11 11 10 9 8 7 6 5 4 3 2 1 0 0 0 1 2 2 2 2 3 4 5 5 5 6 6 7 8 8 8 8 10 11 12
Wind_Direction
172 172 173 172 169 169 169 170 174 176 177 178 177 174 172 171 171 170 169 169 167 162 161 160 159 159 159 158 156 154 155 157 155 153 149 147 146 144 143 139 133 130 130 131 131 127 122 117 112 110 110 106 99 94 89 84 77 70 70 73 70 65 61 59 50 21 24 35 42 38 26 18 19 19 16 12 13 20 23 24 20 16 10 4 4
173 172 171 169 165 164 165 167 172 175 176 178 176 172 171 171 170 169 168 168 167 165 163 162 162 163 162 160 156 156 158 156 154 155 151 148 148 145 143 139 134 133 134 134 133 131 126 121 116 115 115 110 102 101 97 92 87 80 76 76 73 67 55 46 38 8 9 34 42 36 26 21 19 18 17 13 12 17 22 22 17 13 9 3 4
171 170 169 167 164 162 163 166 170 174 175 176 175 172 171 171 171 170 168 167 168 167 165 164 165 166 164 160 157 158 158 156 156 157 154 151 149 146 143 140 138 137 136 135 135 132 127 120 117 118 119 112 103 103 105 99 95 90 84 83 79 68 51 38 30 5 359 34 43 35 26 21 18 16 14 13 16 20 20 19 15 12 9 4 5
168 168 168 167 165 163 164 167 170 173 175 174 173 171 171 171 171 171 169 166 166 166 166 165 166 166 163 160 159 159 158 157 158 158 155 153 152 149 146 144 143 142 138 137 137 134 127 121 120 124 124 116 104 102 109 109 105 96 89 89 81 60 47 44 34 18 21 52 50 38 26 19 17 16 12 11 18 24 21 17 14 11 10 6 6
167 167 167 166 164 163 164 167 170 173 175 174 172 171 171 171 172 173 170 165 163 164 167 169 168 167 165 162 161 160 160 160 159 157 157 157 156 151 147 144 143 141 139 137 136 133 128 124 126 130 127 118 107 102 106 113 115 106 96 92 81 60 49 46 40 38 52 60 49 37 25 17 15 15 13 13 17 22 20 19 17 11 8 6 6
166 165 165 163 162 162 164 167 170 173 174 173 173 172 170 171 172 173 170 165 165 168 169 171 171 170 167 165 163 163 164 162 160 159 160 161 157 151 147 145 143 141 139 138 137 136 134 133 134 137 134 124 114 109 109 110 113 111 104 95 81 66 55 47 45 50 58 56 46 36 26 18 14 13 15 16 18 18 15 15 16 12 6 3 5
165 163 162 161 162 163 165 167 170 173 173 172 173 171 169 170 170 169 168 168 170 170 169 171 173 171 168 166 166 167 165 163 162 162 162 160 156 153 152 149 145 143 142 142 143 144 143 144 143 144 141 131 122 120 112 103 103 105 101 93 83 71 54 48 52 55 54 51 44 36 25 18 15 14 15 18 20 20 14 6 4 6 4 1 2
162 163 162 160 161 164 165 167 169 171 171 170 170 169 169 170 169 166 168 172 173 171 171 172 171 169 169 169 170 169 166 165 166 165 163 161 160 159 156 152 147 145 146 148 151 151 149 148 147 149 148 139 133 129 112 101 102 98 89 81 75 65 51 49 57 57 53 49 44 36 23 17 15 12 12 14 15 14 11 4 355 356 359 360 3
161 162 161 160 162 163 164 166 168 169 169 168 167 168 168 168 167 167 171 175 174 172 172 172 169 169 172 172 172 171 170 170 170 169 166 166 166 162 156 153 150 150 151 153 155 156 154 151 149 150 151 146 140 131 115 107 105 96 88 79 68 60 51 48 52 57 55 48 40 30 19 15 12 5 3 7 7 5 6 5 358 355 355 356 4
161 160 160 160 162 163 164 165 167 168 168 167 166 166 166 165 166 170 174 175 173 172 173 172 171 173 175 174 173 173 174 174 173 172 171 171 168 162 157 156 156 157 157 156 157 158 155 150 143 139 142 142 136 129 119 112 104 94 84 72 62 56 51 48 50 53 55 48 37 24 11 9 7 359 354 358 3 5 5 3 357 357 357 354 359
160 159 158 159 160 162 164 166 168 168 169 168 167 165 164 165 168 172 174 174 173 173 173 173 174 177 177 176 176 177 176 176 175 175 176 174 169 163 160 159 160 164 166 162 157 154 150 145 140 138 139 138 134 129 122 112 101 88 73 58 52 47 46 50 53 51 52 49 35 16 358 357 359 357 352 353 357 360 2 1 356 356 356 351 348
160 159 159 159 160 162 164 167 169 169 169 168 166 165 165 167 170 172 173 172 173 174 174 175 178 179 179 178 178 178 178 178 178 179 178 175 171 167 165 163 165 168 169 165 159 156 155 152 149 148 145 141 137 134 126 116 101 80 58 36 27 28 38 47 50 48 48 41 26 11 355 348 352 354 351 347 348 352 356 358 358 355 352 346 339
159 159 160 161 163 164 166 167 169 170 170 168 166 165 165 168 171 172 172 173 174 174 173 177 181 181 181 181 179 178 179 180 181 180 177 175 173 171 168 168 170 172 172 172 167 165 164 160 156 154 151 148 148 147 144 139 124 85 5 319 309 310 342 29 41 38 29 17 7 2 356 344 343 350 350 342 340 345 349 351 354 353 349 345 342
159 159 161 163 165 166 167 169 169 170 170 168 166 166 166 168 171 173 173 173 174 174 174 179 183 184 185 184 181 180 181 182 182 180 177 176 175 173 172 172 175 179 182 180 173 169 167 164 161 159 159 161 162 166 173 179 174 164 304 302 296 284 275 301 19 22 10 359 347 343 344 340 337 344 350 344 340 344 345 345 349 350 346 347 347
159 161 162 164 166 167 169 170 171 171 171 168 166 166 166 167 170 173 174 175 175 176 177 180 183 186 189 187 182 182 183 183 183 181 178 177 176 175 175 175 177 181 182 178 174 173 174 173 171 171 173 172 172 177 187 195 198 219 291 306 302 283 263 267 331 3 356 347 336 330 330 331 330 335 346 348 347 350 350 349 351 349 345 348 350
160 162 164 167 169 170 170 171 172 173 171 168 167 167 166 166 169 173 174 174 176 177 179 182 184 186 189 188 184 182 183 182 184 183 180 179 178 178 178 178 179 179 177 176 177 179 184 186 183 184 185 181 178 184 190 195 208 238 289 309 306 277 238 246 303 341 343 336 327 324 323 324 325 331 349 357 356 357 359 1 1 353 344 345 345
162 165 167 168 169 170 171 172 173 173 172 170 168 167 166 167 170 173 173 173 176 179 180 183 186 188 189 187 184 183 182 182 185 186 183 181 179 179 179 179 180 180 178 180 183 185 193 196 191 191 191 183 179 184 185 187 199 231 306 332 339 150 156 167 325 334 338 328 319 319 320 322 324 340 12 12 358 353 359 5 3 353 343 340 337
165 167 168 167 167 169 172 173 174 173 173 172 170 168 168 170 172 175 176 176 178 181 182 182 186 191 192 188 185 187 186 184 185 187 185 184 183 183 182 180 180 180 178 178 181 184 188 193 196 202 202 190 181 183 182 182 188 202 224 301 1 133 161 323 330 322 306 314 320 322 326 333 340 15 31 12 354 347 355 1 1 352 342 336 326
168 167 166 166 167 171 174 175 175 175 175 176 174 173 173 174 176 178 180 180 179 181 183 182 185 193 195 190 187 188 188 187 188 189 188 187 187 186 185 181 177 175 174 175 179 182 184 187 194 207 211 197 184 186 188 187 191 205 214 225 262 273 289 315 326 316 304 323 333 337 352 4 9 35 27 8 352 345 346 352 355 350 339 331 326
168 166 165 166 171 175 176 177 179 179 180 180 179 177 176 176 177 179 179 179 179 181 183 184 186 189 191 189 186 185 189 195 195 193 191 190 188 186 186 185 182 180 181 184 189 192 195 198 202 211 216 207 193 193 196 197 203 215 224 234 249 271 296 309 315 312 317 330 336 338 353 8 11 17 12 2 354 347 340 337 345 348 340 330 328
165 166 166 167 171 176 179 182 184 185 185 184 181 180 178 177 177 176 175 176 177 178 181 184 186 187 188 190 188 188 196 202 200 197 195 194 192 187 185 188 190 190 193 196 198 200 205 210 211 214 217 214 205 202 202 205 213 222 234 247 256 272 295 300 299 313 320 326 329 329 340 357 359 353 353 354 354 349 339 330 333 344 343 335 332
164 166 167 168 172 177 182 185 186 187 187 185 182 180 177 176 175 173 171 173 175 176 178 182 184 183 185 189 190 194 202 206 203 201 198 196 193 189 185 186 189 192 196 201 205 208 212 216 218 219 221 220 216 212 209 212 220 228 239 250 256 267 281 279 282 306 317 320 322 324 331 345 353 346 344 348 348 344 340 339 340 345 344 339 337
164 167 169 172 177 181 184 185 184 185 186 184 181 178 173 171 171 170 169 171 173 174 175 178 178 177 180 187 192 200 207 208 206 205 200 195 192 189 186 186 186 189 196 203 209 214 217 219 221 222 223 223 224 222 218 218 224 232 240 246 250 260 266 263 276 300 314 317 321 327 330 336 351 352 347 341 338 339 346 355 353 346 340 339 342
162 167 169 173 178 183 185 184 183 184 184 181 178 173 169 168 168 170 172 173 173 172 172 174 175 174 179 187 193 201 207 209 209 207 202 197 193 189 187 185 184 187 193 200 209 215 219 223 225 223 221 221 224 225 222 223 228 234 240 243 246 253 255 255 272 296 306 311 320 331 335 341 354 355 345 332 331 340 355 356 350 342 336 335 339
162 163 166 169 174 177 178 179 180 182 181 179 175 170 168 169 170 173 177 177 174 172 172 176 178 178 182 188 193 200 206 209 209 207 204 201 197 194 191 187 184 186 189 192 204 212 217 224 226 220 214 213 217 220 221 225 229 233 238 240 242 248 251 251 262 278 288 295 305 316 326 342 350 343 331 327 330 347 357 350 345 342 336 334 337
168 167 167 169 171 171 170 171 175 179 178 177 175 171 170 170 171 174 178 180 178 178 178 179 181 183 186 190 195 201 207 210 210 208 206 203 200 199 199 195 190 190 186 177 190 204 211 218 219 213 207 207 212 218 223 228 231 234 237 239 241 245 247 247 249 257 270 279 283 288 301 320 329 326 323 325 332 345 350 344 341 340 337 336 338
171 171 172 171 169 169 168 167 167 170 171 171 171 170 170 173 175 177 180 181 180 182 184 184 185 187 189 194 200 205 208 211 213 212 208 205 203 203 205 203 200 197 186 167 161 170 176 186 194 196 196 201 211 220 228 233 237 240 243 246 248 247 243 242 246 254 264 272 275 277 287 299 311 318 321 324 328 335 338 337 336 336 335 334 334
169 171 172 171 170 170 170 167 164 165 168 169 170 171 174 179 182 184 186 186 185 185 188 190 191 193 194 198 202 203 204 211 216 214 210 207 206 206 208 208 205 201 192 175 160 155 155 160 171 182 192 204 217 228 237 244 248 251 251 251 251 250 245 244 249 255 260 264 267 268 272 284 301 311 313 315 316 319 325 330 331 331 330 329 327
165 167 169 169 169 170 171 170 167 166 167 169 171 174 179 184 187 187 189 194 196 197 197 198 199 201 203 204 202 197 200 211 219 219 214 209 207 208 211 211 209 205 200 186 170 167 171 174 179 193 211 229 244 252 258 261 260 257 254 252 252 252 250 250 253 256 261 265 266 264 263 277 297 299 296 302 307 309 317 324 326 326 323 320 320
161 164 166 166 168 170 171 171 170 168 167 167 169 172 177 185 189 190 192 197 203 207 207 207 208 210 211 212 212 209 210 216 221 221 218 214 210 210 213 214 212 210 205 192 180 182 189 191 196 207 220 239 256 264 267 267 262 257 254 251 252 254 255 256 257 260 264 264 259 255 258 273 288 285 285 299 307 309 313 319 320 319 316 315 316
161 164 167 169 172 174 174 173 171 169 168 169 169 168 169 175 187 196 201 203 206 210 214 216 218 217 215 216 217 218 221 223 219 215 216 216 213 214 216 217 215 214 210 199 190 191 195 198 207 217 228 242 257 269 273 269 262 258 255 253 257 263 264 262 259 259 259 253 241 246 261 274 281 282 288 299 305 306 311 315 314 313 313 313 312
166 167 170 173 176 177 177 175 173 170 169 170 171 169 166 165 171 185 196 201 204 208 211 214 216 218 218 217 216 216 219 219 214 209 211 214 213 213 216 219 218 217 214 208 204 205 208 210 211 216 227 241 253 261 265 264 261 261 261 262 266 267 264 261 256 250 248 248 248 252 258 267 276 284 291 296 301 307 312 314 312 310 310 310 308
172 172 173 174 175 177 177 176 175 173 171 172 172 172 171 169 165 163 169 182 192 197 201 204 207 210 211 213 215 217 216 213 209 207 209 213 212 211 212 216 216 215 212 211 213 216 218 218 218 217 221 232 244 251 256 261 264 265 264 263 265 266 265 268 267 256 247 244 244 246 252 263 275 283 288 294 304 313 315 314 313 311 309 308 306
178 178 177 175 175 176 177 178 178 177 176 176 176 176 177 175 168 158 152 154 162 172 181 189 197 204 208 210 214 215 208 203 204 205 204 206 209 208 206 205 207 210 214 217 217 217 217 217 218 218 220 226 235 243 253 267 276 276 269 260 254 256 262 267 266 257 248 244 243 248 257 266 271 277 283 294 308 314 315 316 316 314 313 313 312
181 185 185 182 178 178 180 181 181 181 180 180 180 179 179 176 170 164 159 157 155 157 163 171 180 190 200 205 209 208 204 205 211 211 206 203 203 201 197 194 196 202 209 215 218 219 218 217 217 217 219 223 229 236 251 270 284 294 284 260 244 240 246 249 246 247 253 253 252 253 258 263 272 284 292 301 311 314 315 319 320 319 323 326 326
178 184 187 187 184 183 183 184 184 184 182 179 179 180 178 174 170 168 167 166 163 161 163 167 170 175 183 193 202 207 211 217 221 217 209 202 197 194 192 193 197 202 207 212 218 222 222 222 221 221 222 226 230 237 249 258 266 291 298 261 236 232 234 235 237 247 259 263 254 247 252 269 290 300 302 306 311 313 314 317 321 326 332 336 335
178 182 185 186 187 186 186 185 185 186 183 177 177 180 179 176 174 173 171 170 170 169 169 168 168 169 174 183 191 196 199 203 207 205 200 195 193 194 196 197 200 205 210 213 216 220 222 223 224 226 228 231 234 239 245 250 260 287 298 256 232 231 231 233 241 250 256 256 251 255 274 293 301 306 307 307 309 311 314 319 327 332 333 334 337
188 189 186 185 184 184 184 184 185 186 185 182 181 180 177 176 178 178 175 174 175 175 172 170 171 175 176 175 176 177 176 177 179 182 185 188 191 196 201 202 203 207 211 213 214 217 220 224 228 233 237 240 241 244 247 252 265 281 271 234 215 214 225 237 249 250 247 254 273 289 299 303 304 304 303 304 309 317 323 328 332 334 334 335 340
191 192 189 186 184 183 183 185 185 184 183 182 179 175 174 176 180 181 180 180 179 178 176 175 179 183 181 176 173 172 172 174 175 178 183 189 193 198 204 207 209 213 216 217 216 218 223 229 236 242 246 248 248 247 250 258 268 265 236 216 211 209 216 226 226 217 256 290 298 300 301 303 305 304 304 312 325 331 332 333 335 336 338 341 344
185 184 183 184 185 185 187 187 185 183 181 180 178 176 177 180 181 182 182 183 182 182 183 185 188 189 188 184 183 182 181 181 183 186 189 193 197 201 207 212 217 221 224 226 225 227 232 238 244 249 253 256 256 255 257 262 263 248 221 214 211 195 170 112 38 318 309 307 308 312 313 312 311 309 313 324 333 334 335 335 335 336 340 343 344
176 174 176 181 184 184 184 184 184 184 182 181 181 183 184 183 183 183 184 185 185 185 189 194 197 198 197 198 198 197 195 194 194 197 199 201 203 207 212 218 223 226 227 227 228 231 236 242 247 254 263 271 270 266 262 258 248 229 227 234 215 143 32 357 324 311 310 311 311 312 311 311 315 320 324 327 329 329 330 332 332 334 338 342 345
171 169 172 178 181 180 181 183 185 185 183 182 185 188 188 186 185 186 187 188 188 188 190 197 203 204 206 209 210 208 207 208 209 209 209 209 211 215 219 223 226 226 225 223 222 225 233 243 248 254 270 287 285 269 254 243 239 251 259 252 274 343 335 324 316 312 311 309 306 304 304 310 320 327 329 327 326 325 326 329 333 337 341 344 347
172 170 171 174 178 180 182 184 184 184 184 185 187 188 187 185 186 188 190 189 188 188 192 200 205 206 210 217 219 215 213 216 219 219 217 215 215 216 218 221 223 225 225 222 220 224 233 242 245 252 269 281 281 277 270 250 243 244 245 268 315 324 317 313 310 306 302 301 300 303 309 317 322 324 323 322 323 326 329 334 338 342 346 348 348
171 169 169 171 176 181 183 183 183 182 183 187 187 185 184 184 185 187 187 185 185 188 195 201 205 207 211 218 221 216 213 214 218 221 220 218 216 216 217 219 221 223 226 228 229 233 237 240 245 256 265 262 256 259 256 241 231 239 276 299 306 306 302 301 298 295 295 300 304 309 315 318 319 319 318 320 326 332 338 344 348 349 350 350 350
167 167 168 169 174 179 180 180 181 180 180 183 182 179 179 181 181 181 182 183 185 189 194 198 201 205 210 215 218 216 211 209 214 220 222 220 219 218 219 221 226 233 239 241 239 235 234 234 240 247 243 233 233 242 246 250 265 283 292 297 298 295 292 290 288 291 299 307 311 314 315 314 314 316 321 328 337 342 347 351 352 352 352 354 355
164 166 167 167 170 172 174 176 179 179 179 178 175 171 171 175 177 177 180 184 186 188 189 192 194 198 203 209 215 215 208 202 206 217 222 220 221 221 221 225 233 238 238 230 219 214 218 220 222 226 226 228 238 247 252 266 280 283 283 286 287 285 283 285 291 300 306 309 310 310 309 309 314 322 326 332 338 344 349 352 352 353 355 356 357
165 167 168 167 166 168 169 171 174 175 174 174 171 168 168 171 173 175 178 182 182 180 181 186 191 196 204 210 216 216 206 198 201 214 219 217 217 218 220 225 228 220 207 202 205 212 214 211 211 215 221 228 238 246 254 263 268 268 270 274 274 276 285 294 300 306 309 308 306 303 300 305 319 324 329 336 342 346 350 353 354 356 359 3 7
168 167 168 168 168 167 166 167 169 170 170 170 170 170 169 170 173 177 181 183 182 180 180 185 191 201 209 212 213 210 200 196 200 209 211 210 213 215 215 212 204 195 197 206 211 211 209 206 207 214 221 228 236 245 250 254 255 255 260 268 274 282 294 300 303 307 308 302 296 295 298 312 327 333 338 346 351 352 355 360 5 10 16 20 21
170 167 167 168 168 168 167 167 167 168 168 167 166 167 169 173 178 180 182 183 184 186 188 191 195 202 207 208 206 200 194 194 198 201 199 201 207 207 201 195 195 200 206 208 204 202 203 205 209 216 224 231 239 244 244 244 248 254 263 275 284 291 296 297 298 301 298 286 287 297 305 316 328 338 347 354 356 358 6 17 25 28 29 27 20
170 169 168 166 166 167 168 168 168 168 168 168 167 168 171 174 176 177 179 180 183 188 192 194 195 198 200 201 200 195 192 194 199 203 203 205 207 205 199 199 203 205 203 198 195 196 200 205 212 221 228 232 235 234 232 235 245 258 271 282 289 290 294 296 295 295 287 282 288 296 307 324 339 353 3 5 7 15 28 36 35 29 24 19 10
167 169 168 168 167 166 165 165 164 166 168 169 168 168 170 172 174 176 178 178 177 180 183 186 190 194 197 197 196 194 194 198 205 210 211 208 205 203 203 202 198 193 189 189 192 197 204 211 219 224 224 223 223 223 228 240 253 261 269 275 272 270 301 20 207 274 282 286 296 314 333 350 0 8 12 16 27 40 46 42 32 19 11 6 2